Weather History for KAKQ - April, 2013

Change the Weather History Date:

Tuesday, April 2, 2013

  Actual Average (KJGG) Record (KJGG)
Temperature  
Mean Temperature 45 °F -  
Max Temperature 57 °F 70 °F 89 °F (1967)
Min Temperature 33 °F 42 °F 25 °F (1964)
Degree Days  
Heating Degree Days 20    
Moisture  
Dew Point 22 °F    
Average Humidity 44    
Maximum Humidity 78    
Minimum Humidity 20    
Precipitation  
Precipitation 0.00 in - - ()
Sea Level Pressure  
Sea Level Pressure 30.09 in    
Wind  
Wind Speed 3 mph (NW)    
Max Wind Speed 13 mph    
Max Gust Speed 17 mph    
Visibility 10 miles    
Events      
Averages and records for this station are not official NWS values.
T = Trace of Precipitation, MM = Missing Value Source: NWS Daily Summary

Daily Weather History Graph

Daily Weather History Graph

Search for Another Location

Airport or City:

Trip Planner

Search our weather history database for the weather conditions in past years. The results will help you decide how hot, cold, wet, or windy it might be!

Date:

Astronomy

Apr. 02, 2013 Rise Set
Actual Time 6:51 AM EDT 7:31 PM EDT
Civil Twilight 6:25 AM EDT 7:57 PM EDT
Nautical Twilight 5:54 AM EDT 8:28 PM EDT
Astronomical Twilight 5:23 AM EDT 9:00 PM EDT
Moon 1:28 AM EDT (4/2) 11:46 AM EDT (4/2)
Length of Visible Light 13h 31m
Length of Day
12h 39m
Waning Gibbous, 56% of the Moon is Illuminated
Apr 2
Waning Gibbous
Apr 3
Last Quarter
Apr 10
New
Apr 18
First Quarter
Apr 25
Full

Hourly Weather History & Observations

Time (EDT) Temp. Windchill Dew Point Humidity Pressure Visibility Wind Dir Wind Speed Gust Speed Precip Events Conditions
12:54 AM 48.9 °F - 27.0 °F 43% 30.01 in 10.0 mi North 5.8 mph - N/A   Clear
1:54 AM 46.0 °F 44.8 °F 24.1 °F 42% 30.03 in 10.0 mi North 3.5 mph - N/A   Clear
2:54 AM 42.1 °F - 27.0 °F 55% 30.04 in 10.0 mi Calm Calm - N/A   Clear
3:54 AM 39.9 °F - 25.0 °F 55% 30.04 in 10.0 mi Calm Calm - N/A   Overcast
4:54 AM 36.0 °F - 28.0 °F 73% 30.05 in 10.0 mi Calm Calm - N/A   Clear
5:54 AM 34.0 °F - 27.0 °F 75% 30.08 in 10.0 mi Calm Calm - N/A   Clear
6:54 AM 33.1 °F - 27.0 °F 78% 30.11 in 10.0 mi Calm Calm - N/A   Clear
7:54 AM 36.0 °F - 28.9 °F 76% 30.14 in 10.0 mi Calm Calm - N/A   Clear
8:54 AM 45.0 °F - 21.9 °F 40% 30.15 in 10.0 mi Calm Calm - N/A   Clear
9:54 AM 48.0 °F - 18.0 °F 30% 30.15 in 10.0 mi WSW 3.5 mph - N/A   Clear
10:54 AM 50.0 °F - 19.9 °F 31% 30.14 in 10.0 mi Variable 6.9 mph - N/A   Clear
11:54 AM 52.0 °F - 19.0 °F 27% 30.13 in 10.0 mi Calm Calm - N/A   Clear
12:54 PM 54.0 °F - 19.9 °F 26% 30.11 in 10.0 mi WNW 10.4 mph 16.1 mph N/A   Clear
1:54 PM 55.0 °F - 14.0 °F 20% 30.09 in 10.0 mi Variable 4.6 mph 17.3 mph N/A   Clear
2:54 PM 55.9 °F - 17.1 °F 22% 30.06 in 10.0 mi West 8.1 mph - N/A   Clear
3:54 PM 55.9 °F - 16.0 °F 21% 30.06 in 10.0 mi West 12.7 mph 17.3 mph N/A   Clear
4:54 PM 57.0 °F - 17.1 °F 21% 30.06 in 10.0 mi North 8.1 mph 16.1 mph N/A   Clear
5:54 PM 55.9 °F - 17.1 °F 22% 30.08 in 10.0 mi West 8.1 mph - N/A   Clear
6:54 PM 54.0 °F - 15.1 °F 22% 30.09 in 10.0 mi WNW 5.8 mph - N/A   Clear
7:54 PM 46.0 °F - 24.1 °F 42% 30.10 in 10.0 mi Calm Calm - N/A   Clear
8:54 PM 43.0 °F - 24.1 °F 47% 30.12 in 10.0 mi Calm Calm - N/A   Clear
9:54 PM 39.0 °F - 28.0 °F 65% 30.14 in 10.0 mi Calm Calm - N/A   Clear
10:54 PM 36.0 °F - 28.0 °F 73% 30.14 in 10.0 mi Calm Calm - N/A   Clear
11:54 PM 36.0 °F - 24.1 °F 62% 30.15 in 10.0 mi Calm Calm - N/A   Clear